Location: ČR
(50.0000°N, 15.0000°E)
Time: 11:30:49
(UTC+02:00)

A-11 Canister half - Pass Details

Date: 18 March 2026
Orbit: 1514 x 1685 km, 47.2° (Epoch: 16 April)

Event Time Altitude Azimuth Distance (km) Brightness Sun altitude
Rises 14:50:57 0° 249° (WSW) 4,846 12.7 28.4°
Reaches altitude 10° 14:54:03 10° 247° (WSW) 3,880 12.5 28.1°
Maximum altitude 15:03:58 72° 166° (SSE) 1,748 9.9 26.9°
Drops below altitude 10° 15:14:04 10° 85° (E) 3,952 10.8 25.6°
Sets 15:17:15 0° 84° (E) 4,939 11.2 25.2°
